Location: Batschenhof
(48.9034°N, 9.8693°E)
Time: 14:00:44
(UTC+00:00)

Daily predictions for brighter satellites

Satellite Brightness Start Highest point End
(mag) Time Altitude Azimuth Time Altitude Azimuth Time Altitude Azimuth
USA 59 Rocket 0.6 18:09:13 10° NNW 18:12:39 39° NE 18:17:10 10° ESE
CZ-4B R/B 3.9 18:08:50 10° SE 18:13:47 36° ENE 18:18:40 10° N
Lacrosse 4 Rocket 1.6 18:10:50 10° NNW 18:15:10 62° NE 18:19:26 10° SE
USA 276 2.0 18:13:02 10° W 18:15:55 66° N 18:18:40 10° E
BlueWalker 3 2.0 18:15:05 10° WNW 18:18:51 71° NNE 18:22:35 10° ESE
COSMO-SKYMED 1 4.2 18:15:07 10° N 18:19:11 40° WNW 18:23:14 10° SW
BREEZE-M R/B 3.5 18:15:52 10° W 18:19:40 89° N 18:30:37 10° E
Okean-O 4.4 18:18:46 10° E 18:21:15 15° ENE 18:23:44 10° NNE
CZ-4B R/B 3.0 18:19:12 10° SE 18:22:53 49° ENE 18:26:45 10° N
Helios 1B rocket 3.9 18:19:40 10° S 18:23:17 38° W 18:26:55 10° NNW
USA 306 3.5 18:21:03 10° S 18:23:32 22° SE 18:26:21 10° E
Cosmos 2360 Rocket 2.8 18:20:48 10° SW 18:26:23 62° WNW 18:32:00 10° NNE
Cosmos 1766 Rocket 4.1 18:22:42 10° SSE 18:26:38 35° E 18:30:38 10° NNE
SAR-Lupe-2 3.8 18:23:19 10° S 18:26:53 72° WSW 18:30:29 10° NNW
ATLAS CENTAUR R/B 4.1 18:23:01 10° WNW 18:27:32 37° SW 18:34:12 10° SSE
Meteor 1-18 Rocket 4.3 18:21:46 10° N 18:27:45 81° ENE 18:33:36 10° SSE
NOSS 2-1 (C) 3.7 18:27:08 10° NNW 18:30:41 54° NE 18:35:17 11° ESE
YAOGAN 1 4.1 18:29:58 10° SSW 18:33:59 39° W 18:38:01 10° NNW
Cosmos 1842 3.8 18:31:06 10° N 18:34:24 33° ENE 18:37:42 10° SE
ACS3 Solar Sail 2.6 18:28:56 10° SE 18:34:41 36° ENE 18:40:25 10° N
Cosmos 2322 Rocket 3.5 18:31:20 10° SW 18:36:47 44° NW 18:42:15 10° NNE
Cosmos 2237 Rocket 3.4 18:33:12 10° SE 18:37:03 19° E 18:40:55 10° NE
Cosmos 1937 Rocket 4.4 18:33:03 10° NNW 18:38:11 53° WSW 18:43:19 10° S
USA 290 3.3 18:36:42 10° N 18:39:37 29° ENE 18:41:39 16° ESE
Cosmos 1674 2.3 18:37:43 10° N 18:41:02 61° ENE 18:44:19 10° SSE
SPOT 5 4.1 18:40:12 13° ESE 18:43:01 22° ENE 18:46:27 10° NNE
Cosmos 841 Rocket 4.0 18:40:30 10° SSW 18:45:40 65° WNW 18:50:50 10° NNE
Cosmos 2219 Rocket 2.4 18:40:11 10° SSW 18:45:52 79° WNW 18:51:35 10° NNE
CSL-04 Rocket 3.7 18:43:20 10° SSE 18:48:35 58° ENE 18:53:49 10° N
Cosmos 1707 3.0 18:45:38 10° N 18:49:00 39° ENE 18:51:37 15° SE
Iridium 4 Rocket 3.1 18:46:07 10° N 18:50:21 79° W 18:54:29 10° S
Cosmos 2333 Rocket 3.4 18:45:14 10° SW 18:50:46 46° NW 18:56:20 10° NNE
USA 186 1.7 18:48:13 10° SSE 18:51:24 72° ENE 18:54:38 10° N
GEOS 3 Rocket 4.2 18:48:00 10° SSE 18:53:07 55° SW 18:58:14 10° NW
Cosmos 44 Rocket 3.9 18:49:02 10° NW 18:53:40 52° WSW 18:58:11 10° SSE
Cosmos 1818 3.6 18:49:27 10° SW 18:54:56 85° SE 19:00:27 10° NE
Cosmos 1328 Rocket 3.5 18:53:53 10° N 18:58:12 90° E 19:02:30 10° S
SJ-6B 3.9 18:54:58 10° S 18:58:26 42° W 19:01:55 10° NNW
ERS-1 Rocket 4.3 18:57:27 16° E 18:59:42 22° ENE 19:03:30 10° N
Cosmos 1340 3.9 18:58:31 10° SW 19:01:36 38° WNW 19:04:42 10° N
Meteor 1-4 Rocket 1.6 18:59:05 10° N 19:01:46 76° E 19:03:23 21° SSE
Cosmos 1125 Rocket 4.0 18:57:07 10° NNW 19:02:02 41° ENE 19:05:09 20° ESE
ARGOS Delta rocket 4.2 18:57:31 10° S 19:02:38 71° W 19:07:31 10° NNW
Cosmos 1726 2.7 19:00:07 10° SSW 19:02:48 42° WNW 19:05:31 10° N
SL-08 R/B 4.1 18:58:35 10° N 19:03:25 59° WNW 19:08:15 10° SSW
Nadezhda 4 Rocket 4.3 18:57:59 10° N 19:04:02 49° ENE 19:09:06 15° SE
Cosmos 1980 4.3 19:00:44 10° SSE 19:05:45 34° ESE 19:10:49 10° NE
Cosmos 2369 Rocket 4.1 19:02:21 10° N 19:05:51 16° NE 19:09:13 10° ENE
KORONAS-FOTON 3.6 19:02:12 10° N 19:05:55 84° E 19:09:21 12° S
NOSS 2-1 (E) 3.5 19:03:22 10° NW 19:07:09 83° SW 19:10:47 19° SE
MOS 1-B 4.3 19:02:15 10° SSE 19:08:01 74° ENE 19:13:49 10° NNW
Feng Yun 1-1 Rocket 4.3 19:04:51 10° SSE 19:10:36 89° ENE 19:16:32 10° NNW
Helios 1A 3.7 19:07:56 10° N 19:11:56 54° WNW 19:15:53 10° SSW
CARTOSAT-1 3.7 19:07:58 10° S 19:12:12 74° WSW 19:16:28 10° NNW
Cosmos 1743 4.1 19:08:53 10° SW 19:12:14 37° WNW 19:15:36 10° N
Cosmos 1513 Rocket 4.4 19:06:36 10° S 19:12:36 71° E 19:18:41 10° NNE
Cosmos 2322 3.7 19:07:17 10° SSW 19:12:56 85° WNW 19:18:38 10° NNE
In-Cosmos 22 4.3 19:07:45 10° N 19:13:25 57° ENE 19:17:27 19° SSE
Cosmos 1400 Rocket 3.8 19:10:28 10° NNW 19:14:10 45° W 19:17:47 10° S
USA 215 4.5 19:16:00 19° SE 19:16:00 19° SE 19:19:14 10° SSE
ATLAS 2AS CENTAUR R/B 4.4 19:08:44 10° W 19:15:01 31° NNW 19:21:05 10° NE
NOSS 2-1 (D) 3.8 19:12:33 10° NW 19:16:18 66° SW 19:19:41 20° SSE
Cosmos 1464 Rocket 4.0 19:11:43 10° S 19:17:53 61° E 19:24:09 10° NNE
IKONOS-2 4.3 19:19:04 10° NNE 19:23:13 66° ESE 19:27:19 10° S
Cosmos 1315 Rocket 3.3 19:19:54 10° N 19:23:41 41° ENE 19:24:37 35° ESE
CSL-04 Debris 4.4 19:18:32 10° S 19:23:59 72° WSW 19:29:28 10° NNW
NOSS 0 Rocket 3.9 19:19:13 10° SSW 19:25:21 63° ESE 19:31:32 10° NE
Cosmos 1943 Rocket 2.2 19:20:24 10° NNW 19:25:53 63° ENE 19:28:44 28° SE
Meteor 1-13 Rocket 4.3 19:21:51 10° N 19:27:46 69° ENE 19:31:40 22° SSE
Kosmos-1783 3.9 19:28:56 10° WSW 19:30:36 31° W 19:30:36 31° W
Cosmos 1536 2.5 19:28:22 12° S 19:31:52 82° E 19:35:42 10° NNE
CZ-4 R/B 3.3 19:29:39 10° SSW 19:32:55 27° W 19:36:15 10° NW
Okean 3 Rocket 3.5 19:29:23 10° S 19:33:52 89° E 19:38:21 10° N
COSMOS 2428 2.9 19:28:14 10° SW 19:33:55 74° WNW 19:39:42 10° NNE
SL-16 R/B 4.2 19:38:20 12° ENE 19:38:20 12° ENE 19:38:50 10° ENE
Cosmos 1814 Rocket 4.3 19:30:47 10° SSW 19:36:04 72° WNW 19:41:21 10° NNE
Okean O Rocket 1.8 19:34:42 20° S 19:37:47 72° WSW 19:42:14 10° NNW
Cosmos 2034 Rocket 4.0 19:32:33 13° SSE 19:38:03 58° E 19:44:06 10° NNE
Sich 1 3.3 19:39:36 42° E 19:39:48 42° E 19:43:52 10° NNE
MOS 1 4.2 19:38:01 26° SSE 19:41:25 78° ENE 19:47:08 10° NNW
SL-14 R/B 3.8 19:40:16 10° N 19:43:35 38° ENE 19:43:35 38° ENE
Meteor 1-23 Rocket 4.3 19:38:56 10° N 19:44:29 58° ENE 19:46:34 37° SE
Resurs 01 Rocket 3.1 19:42:31 10° SSW 19:46:33 34° W 19:50:38 10° NNW
Cosmos 1515 Rocket 3.9 19:42:33 10° NNW 19:46:51 62° W 19:49:29 22° S
DELTA 2 DEB (DPAF) 3.9 19:45:47 10° NNE 19:49:55 61° ESE 19:50:30 55° SE
USA 276 3.0 19:47:16 10° WNW 19:49:14 39° W 19:49:14 39° W
USA 267 3.7 19:47:17 23° E 19:51:17 54° NNE 19:57:38 10° WNW
Cosmos 2278 Rocket 2.6 19:45:49 10° NW 19:51:25 62° WSW 19:54:37 26° S
Cosmos 2228 Rocket 4.2 19:47:47 10° N 19:51:33 29° ENE 19:51:33 29° ENE
Terra 2.1 19:51:19 43° E 19:51:58 46° ENE 19:56:29 10° N
Lacrosse 4 Rocket 3.9 19:49:58 10° WNW 19:52:56 18° WSW 19:55:52 10° SSW
Meteor 2-9 Rocket 4.0 19:50:14 19° S 19:54:07 76° E 19:59:33 10° NNE
CZ-4B R/B 4.4 19:49:10 10° SSW 19:54:17 40° W 19:59:22 10° NNW
NOSS 3-3 (A) 4.1 19:55:13 41° ESE 19:55:13 41° ESE 20:00:35 10° NE
USA 306 2.5 19:52:28 10° WSW 19:55:47 74° NNW 19:56:02 69° NNE
BlueWalker 3 3.2 19:53:24 10° WNW 19:56:41 29° SW 19:56:57 28° SSW
Okean-O 2.6 19:55:32 41° S 19:57:02 78° WSW 20:01:28 10° NNW
USA 59 Rocket 1.6 19:58:31 10° WNW 20:02:09 31° SW 20:04:17 22° SSW
Cosmos 1656 Rocket 4.4 19:57:18 10° NNW 20:02:34 38° NE 20:03:42 34° ENE
Meteor 1-11 Rocket 3.7 19:57:22 10° SSW 20:03:02 81° WNW 20:08:37 10° N
Cosmos 1805 3.8 20:04:26 43° NNE 20:04:26 43° NNE 20:07:01 10° NNE
Cosmos 1500 Rocket 3.4 20:04:05 57° S 20:04:57 85° E 20:09:20 10° N
Spot 2 Rocket 3.6 20:05:32 50° E 20:06:05 53° ENE 20:10:59 10° N
Cosmos 1743 Rocket 3.4 20:10:32 69° ENE 20:10:32 69° ENE 20:14:35 10° NNE
Cosmos 1733 4.4 20:10:44 23° SW 20:12:20 36° WNW 20:15:34 10° N
CRYOSAT 2 4.2 20:08:20 10° N 20:13:16 86° E 20:14:19 56° S
Cosmos 2298 Rocket 3.9 20:09:24 10° NNW 20:14:44 82° ENE 20:15:37 63° SE
USA 32 4.1 20:11:03 10° N 20:16:17 76° W 20:18:00 43° SSW
NOSS 3-4 (A) 4.2 20:11:38 10° NW 20:18:02 50° NE 20:20:36 36° E
NOSS 3-4 (C) 4.2 20:11:44 10° NW 20:18:08 49° NE 20:20:42 36° E
Cosmos 2150 Rocket 3.8 20:13:18 10° NNW 20:18:30 87° ENE 20:19:10 68° SSE
ACS3 Solar Sail 2.7 20:13:17 14° SSW 20:18:34 49° W 20:24:46 10° NNW
MetOp-B 4.4 20:17:26 37° S 20:19:28 64° WSW 20:24:49 10° NNW
Cosmos 2237 Rocket 2.3 20:14:49 10° SSW 20:20:27 77° WNW 20:26:07 10° NNE
SPOT 5 3.3 20:19:20 38° SSW 20:20:45 52° W 20:25:11 10° NNW
Cosmos 1408 Rocket 4.3 20:18:57 25° SW 20:21:15 51° WNW 20:25:35 10° N
Cosmos 1570 Rocket 4.1 20:16:37 10° SSW 20:21:54 74° WNW 20:27:11 10° NNE
IRS-1C Rocket 4.1 20:22:23 57° S 20:23:30 81° WSW 20:28:49 10° NNW
Cosmos 158 Rocket 3.9 20:22:18 29° SSW 20:24:46 77° WNW 20:29:40 10° NNE
Cosmos 2297 4.0 20:21:06 10° NNW 20:26:35 48° NE 20:27:01 47° ENE
IRS-1A Rocket 4.4 20:26:04 45° S 20:27:53 71° WSW 20:33:37 10° NNW
Meteor 1-21 4.2 20:26:00 10° NNW 20:31:46 89° W 20:32:42 65° S
ERS-1 Rocket 3.2 20:37:22 56° SW 20:38:01 62° WSW 20:43:01 10° NNW
Ariane Rocket 2.9 20:38:38 83° NE 20:38:38 83° NE 20:43:38 10° NNW
MOS 1 Rocket 4.3 20:41:41 40° SW 20:42:49 46° W 20:47:51 10° NNW
Cosmos 1805 Rocket 4.5 20:44:51 42° W 20:45:21 44° WNW 20:49:31 10° N
Cosmos 2369 Rocket 2.4 20:45:28 10° NNW 20:50:59 59° NE 20:50:59 59° NE
SPOT 3 Rocket 3.6 20:54:51 74° WNW 20:54:51 74° WNW 20:59:46 10° NNW
Cosmos 1862 Rocket 4.5 20:52:40 10° N 20:55:48 46° NNW 20:55:48 46° NNW
Cosmos 2266 Rocket 4.2 20:52:37 10° N 20:58:24 54° ENE 20:58:24 54° ENE
Cosmos 773 Rocket 4.3 21:06:38 63° NNW 21:06:38 63° NNW 21:11:15 10° NNE
Cosmos 1634 Rocket 4.4 21:06:53 45° SW 21:08:40 61° WNW 21:14:57 10° N
Cosmos 1943 Rocket 3.8 21:04:54 10° NW 21:09:09 23° WSW 21:10:15 22° WSW
SL-16 R/B 2.8 21:20:09 51° NNE 21:20:09 51° NNE 21:24:20 10° NNE
NOSS 3-3 (C) 4.2 21:28:04 47° W 21:29:27 60° NW 21:35:59 10° NE
Cosmos 1655 Rocket 4.4 21:23:21 10° N 21:28:49 57° NE 21:28:49 57° NE
Terra 3.6 21:30:01 24° W 21:30:01 24° W 21:33:36 10° NW
USA 267 3.2 21:34:37 73° WSW 21:34:37 73° WSW 21:40:43 10° WNW
BREEZE-M DEB (TANK) 4.2 21:40:13 10° WNW 21:48:28 46° W 21:48:28 46° W
NOSS 3-4 (A) 4.3 22:02:27 10° NW 22:08:00 50° W 22:08:00 50° W
NOSS 3-4 (C) 4.3 22:02:33 10° NW 22:08:06 50° W 22:08:06 50° W
Cosmos 2369 Rocket 4.1 22:30:06 10° NW 22:32:45 21° WNW 22:32:45 21° WNW
USA 215 3.6 22:35:09 10° NE 22:41:34 59° NNW 22:41:42 59° NNW
Cosmos 1980 Rocket 4.3 22:54:07 10° N 22:58:00 19° NE 22:59:00 18° NE
ATLAS 2AS CENTAUR R/B 3.6 22:54:29 10° NW 23:00:57 40° NNE 23:01:46 39° NE
SL-16 R/B 4.3 23:01:58 18° WNW 23:03:36 21° NW 23:07:49 10° N
Cosmos 1697 Rocket 4.1 23:38:28 10° NNW 23:41:47 34° N 23:41:47 34° N
